This is the latest recevied weather packets stored in our database for station/object KF6YUA. If no packets are shown the sender has not sent any weather packets the latest 10 day(s).
| Time | Temp. | Humidity | Pressure | Rain* | Wind** | Luminosity | Snow |
|---|---|---|---|---|---|---|---|
| 1777846276 | 18.33° C | 65% | 1014.8 hPa | 0 mm | - | 297 W/m² | - |
| 1777845973 | 17.78° C | 69% | 1014.9 hPa | 0 mm | - | 621 W/m² | - |
| 1777845670 | 17.78° C | 69% | 1015 hPa | 0 mm | - | 607 W/m² | - |
| 1777845367 | 17.22° C | 67% | 1015.1 hPa | 0 mm | - | 576 W/m² | - |
| 1777845063 | 17.78° C | 68% | 1014.9 hPa | 0 mm | - | 617 W/m² | - |
| 1777844762 | 17.78° C | 67% | 1015 hPa | 0 mm | - | 547 W/m² | - |
| 1777844458 | 17.78° C | 66% | 1015.2 hPa | 0 mm | - | 519 W/m² | - |
| 1777844157 | 17.78° C | 64% | 1014.8 hPa | 0 mm | - | 590 W/m² | - |
| 1777843853 | 17.78° C | 62% | 1014.8 hPa | 0 mm | - | 663 W/m² | - |
| 1777843550 | 18.33° C | 62% | 1014.8 hPa | 0 mm | - | 568 W/m² | - |
| 1777843247 | 17.78° C | 67% | 1014.8 hPa | 0 mm | - | 532 W/m² | - |
| 1777842945 | 17.78° C | 66% | 1014.8 hPa | 0 mm | - | 653 W/m² | - |
| 1777842640 | 17.78° C | 68% | 1014.8 hPa | 0 mm | - | 421 W/m² | - |
| 1777842337 | 17.22° C | 67% | 1014.8 hPa | 0 mm | - | 489 W/m² | - |
| 1777842033 | 18.33° C | 64% | 1014.9 hPa | 0 mm | - | 484 W/m² | - |
| 1777841730 | 17.78° C | 67% | 1014.9 hPa | 0 mm | - | 520 W/m² | - |
| 1777841426 | 17.22° C | 67% | 1014.8 hPa | 0 mm | - | 335 W/m² | - |
| 1777841123 | 16.67° C | 68% | 1014.8 hPa | 0 mm | - | 218 W/m² | - |
| 1777840820 | 17.22° C | 67% | 1014.7 hPa | 0 mm | - | 287 W/m² | - |
| 1777840517 | 17.22° C | 71% | 1014.8 hPa | 0 mm | - | 313 W/m² | - |
| 1777840214 | 16.67° C | 71% | 1015 hPa | 0 mm | - | 272 W/m² | - |
| 1777839912 | 16.11° C | 72% | 1014.9 hPa | 0 mm | - | 313 W/m² | - |
| 1777839610 | 16.67° C | 73% | 1015 hPa | 0 mm | - | 268 W/m² | - |
| 1777839308 | 16.11° C | 73% | 1015.1 hPa | 0 mm | - | 234 W/m² | - |
| 1777839005 | 16.11° C | 74% | 1015 hPa | 0 mm | - | 269 W/m² | - |
* Rain latest hour (hover to see other rain measurements)
** Current wind speed in m/s (hover to see current wind gust speed)